Wind_Speed
7 7 6 6 6 6 5 4 4 4 3 2 2 3 3 3 3 5 5 6 6 7 7 7 7 7 7 7 7 8 8 7 7 6 6 6 6 6 5 5 5 5 5 6
8 7 8 8 7 6 5 5 5 6 6 4 3 4 4 5 5 5 6 7 7 8 9 9 9 9 8 8 8 8 8 9 8 8 7 7 8 8 6 6 6 6 6 7
9 9 9 9 8 7 6 7 7 7 7 6 5 5 6 7 7 7 8 8 8 9 9 9 10 9 9 9 8 8 8 9 9 9 9 8 8 8 8 8 8 7 8 9
11 11 10 9 9 8 8 9 9 9 7 7 6 7 8 8 8 9 9 9 10 11 10 10 10 10 9 9 9 9 9 10 10 10 10 9 10 10 10 10 9 9 10 11
12 12 12 11 10 10 10 9 9 9 8 8 7 7 8 9 10 10 11 11 12 12 11 11 11 11 10 11 10 10 11 11 10 11 10 11 11 11 11 11 11 11 12 12
15 15 13 12 12 11 11 10 10 9 9 9 10 8 9 11 12 12 12 12 12 12 12 12 12 12 12 12 11 12 12 11 12 12 10 11 12 12 12 12 12 12 13 13
16 16 15 15 13 13 12 10 10 10 10 11 12 10 11 12 13 13 13 13 13 13 13 14 13 13 13 13 13 13 12 12 12 12 12 12 13 13 14 14 13 14 14 14
17 17 17 17 16 15 14 13 12 12 12 13 15 14 13 13 14 14 14 14 14 14 15 15 15 15 14 14 14 14 14 14 14 14 14 14 13 13 14 15 15 15 16 16
18 18 18 18 17 16 16 15 15 14 14 14 15 16 15 15 15 15 15 15 16 16 16 16 16 16 15 14 15 15 15 15 15 15 15 15 14 14 14 15 16 16 16 17
20 19 19 20 19 18 18 16 16 16 16 16 16 16 17 17 17 17 17 17 17 18 18 17 17 16 16 15 16 16 16 16 16 16 16 16 16 16 16 16 16 16 17 17
21 21 20 21 20 19 18 18 19 18 18 17 16 16 18 17 17 17 17 18 18 18 19 19 19 18 18 17 17 18 18 18 18 17 17 17 17 17 17 16 16 17 18 18
23 22 22 22 22 21 20 20 19 20 20 19 18 19 20 19 18 18 18 19 19 19 19 19 19 19 19 19 19 19 19 19 19 19 18 18 18 18 18 18 18 18 19 19
24 24 22 21 21 22 22 22 21 20 20 20 19 19 20 21 20 19 19 19 19 19 19 19 20 20 21 20 20 20 20 20 20 20 19 19 19 19 19 19 20 19 19 19
25 25 24 22 21 22 23 23 22 21 21 21 21 20 21 21 21 21 20 19 19 19 18 18 19 20 21 20 20 20 20 20 21 20 20 20 20 20 20 20 20 21 21 21
27 27 27 27 26 25 25 24 23 24 23 22 22 22 21 21 22 22 21 21 20 19 19 19 20 21 21 21 21 21 21 20 20 20 20 20 21 21 21 21 21 21 21 22
29 29 29 29 29 28 27 26 25 25 25 24 24 24 23 22 22 23 22 21 21 21 21 21 21 21 21 21 21 22 21 21 21 21 21 21 21 21 21 22 22 22 22 22
30 30 30 30 30 30 29 27 26 26 26 25 25 24 24 24 23 23 24 23 22 22 21 21 22 22 21 21 22 21 21 22 22 22 22 22 22 22 22 22 22 22 23 23
31 31 31 31 31 32 30 28 27 27 27 26 26 25 25 25 24 24 25 25 24 23 22 22 23 22 22 22 22 22 22 22 22 22 22 23 23 23 23 23 24 24 23 23
30 31 32 32 32 31 31 29 27 27 27 26 27 26 26 25 26 25 25 25 24 24 24 24 24 24 24 24 23 24 24 23 23 22 23 23 23 24 24 24 24 24 25 25
31 31 31 32 31 30 30 28 27 28 30 27 27 28 27 26 26 26 26 26 25 25 25 26 26 26 26 26 25 25 25 24 23 24 24 24 25 25 26 26 25 25 26 26
31 31 31 31 31 31 30 28 28 29 29 28 28 29 28 28 28 28 27 27 27 26 27 27 27 28 28 27 27 26 26 26 25 26 26 26 26 27 27 27 26 27 27 27
31 31 31 31 32 31 30 30 29 30 30 29 29 29 29 29 29 29 29 29 28 28 28 29 29 29 29 29 29 28 28 28 28 28 28 28 28 28 28 28 28 28 28 27
32 31 31 32 32 31 30 30 30 30 29 29 29 29 29 29 29 29 29 29 29 29 30 30 31 30 29 29 30 29 29 28 28 29 29 29 29 28 28 29 28 27 27 27
33 33 33 33 32 32 31 31 31 30 30 29 29 29 29 29 29 29 29 29 30 30 30 31 31 30 30 30 30 29 29 29 28 28 28 29 29 29 29 28 28 28 28 28
34 33 33 33 33 33 32 31 31 31 30 30 30 30 30 29 29 29 29 30 30 30 30 31 31 31 31 30 30 30 30 29 29 29 29 29 29 29 29 29 29 28 28 28
33 33 32 32 32 32 32 31 31 31 30 30 30 30 30 30 29 29 30 30 30 30 30 30 31 31 31 30 30 29 29 29 29 29 29 29 29 29 29 29 29 28 28 28
Wind_Direction
195 196 195 206 215 215 218 230 251 257 256 279 312 325 321 325 338 346 349 347 340 342 341 335 330 325 324 321 317 315 312 314 311 308 304 305 302 296 295 291 293 285 281 278
206 208 210 217 223 228 233 244 255 254 256 267 299 314 311 316 322 326 329 331 330 328 328 326 322 320 317 319 315 314 313 308 303 300 297 293 296 293 293 287 286 283 277 277
216 218 220 222 230 238 248 253 254 252 259 270 293 311 313 308 311 314 315 319 323 327 324 323 320 315 313 313 312 307 305 308 303 298 295 292 290 290 290 288 287 284 279 276
216 222 227 230 236 242 250 253 255 257 261 275 280 294 302 300 302 306 313 315 317 320 321 321 321 317 314 311 307 304 305 305 302 299 295 289 283 284 285 286 286 285 283 279
223 228 233 236 241 245 246 253 260 260 263 267 277 289 292 298 301 303 307 312 315 314 313 315 317 312 307 307 305 303 304 305 305 299 289 287 284 281 281 281 281 282 282 280
226 231 236 239 243 246 248 255 267 268 271 270 272 282 286 294 298 301 303 307 309 310 309 310 310 308 307 305 304 304 307 303 301 297 288 286 284 280 278 278 277 278 280 281
235 239 242 244 246 249 251 257 268 274 274 275 275 277 276 287 293 297 298 300 304 307 306 304 304 303 302 300 299 299 301 300 301 297 289 286 284 281 278 279 280 279 278 279
237 242 244 244 245 251 253 252 255 261 266 273 280 276 278 282 287 292 293 294 298 301 303 301 298 297 297 295 297 298 297 297 299 298 296 291 289 284 280 281 283 282 282 280
236 242 244 246 247 249 254 255 256 263 270 275 275 280 281 282 285 287 290 293 294 295 296 295 294 294 293 292 293 294 297 297 298 298 295 294 288 287 289 288 286 284 283 282
237 242 246 250 249 252 253 254 259 260 267 271 277 284 283 285 285 285 287 290 292 291 292 291 292 292 291 290 291 292 294 296 297 295 291 291 287 286 290 291 289 287 285 284
238 243 248 251 248 251 253 253 256 259 263 269 275 277 282 286 283 282 284 285 287 287 289 288 288 289 290 288 289 290 291 292 293 291 290 290 289 288 288 288 287 286 285 286
241 243 246 251 253 251 254 257 260 263 267 270 272 276 281 284 283 284 285 286 286 287 286 285 285 285 286 286 286 288 290 290 291 289 288 288 288 288 286 285 286 285 284 284
243 243 247 251 255 255 256 259 261 264 268 271 273 276 281 282 282 282 283 283 286 287 286 284 284 284 285 284 285 287 287 287 287 287 286 285 286 286 285 285 285 286 288 285
244 243 244 247 249 256 260 261 262 263 264 268 271 274 277 280 280 281 281 282 283 285 285 285 286 284 285 286 287 287 286 287 288 287 284 284 284 285 286 286 286 286 288 289
245 246 247 248 251 255 259 261 262 262 263 266 270 274 278 281 279 279 280 281 281 281 283 284 285 285 285 287 288 288 287 286 285 287 284 283 284 283 284 285 284 284 287 289
246 248 250 252 253 256 259 260 261 263 265 267 270 274 278 281 281 280 281 283 282 280 281 283 284 285 285 286 289 289 287 287 286 287 285 281 283 284 283 283 284 283 285 287
248 250 252 254 256 258 259 259 261 264 265 267 269 273 277 279 281 281 280 281 282 280 280 281 282 285 285 285 287 288 287 286 286 286 285 279 281 284 284 284 285 287 288 288
249 250 252 254 256 258 260 260 262 264 265 266 267 270 273 276 278 280 280 280 280 278 279 281 282 283 285 284 285 285 286 286 284 283 284 281 280 283 284 285 286 288 290 290
250 250 252 253 257 262 262 261 262 264 265 265 268 270 272 274 277 279 279 278 279 278 278 279 281 282 285 284 284 286 287 286 283 281 281 281 280 281 284 286 287 289 291 292
250 251 253 254 256 258 263 263 263 265 266 266 267 268 270 272 275 277 277 277 277 278 279 279 280 282 283 284 284 285 286 286 285 283 282 281 282 283 283 285 286 288 290 291
250 251 252 254 256 258 260 263 264 264 266 267 267 268 268 269 272 274 275 276 276 276 277 278 280 282 283 284 284 284 284 284 285 284 283 283 283 284 283 284 284 285 288 290
249 251 253 254 255 256 260 262 263 264 266 267 268 268 269 270 271 273 275 277 275 275 276 277 279 280 282 283 284 284 285 284 282 282 282 283 283 282 283 284 285 285 286 288
249 249 252 254 256 259 261 262 263 265 266 266 267 269 270 270 271 273 275 276 275 275 276 277 278 279 280 282 284 284 285 284 283 282 281 281 281 281 282 284 285 286 286 286
252 251 252 254 255 256 259 261 263 265 266 267 268 270 271 272 272 272 273 274 274 274 275 277 278 279 279 280 282 283 283 283 282 282 281 281 281 280 282 283 284 284 284 285
252 253 253 254 255 256 259 260 262 264 265 266 268 271 272 272 272 271 272 273 272 274 276 277 277 277 278 280 281 282 281 282 282 281 280 280 280 280 280 281 282 283 283 284
251 251 252 253 254 256 257 259 261 263 265 266 269 271 272 271 270 271 272 272 272 274 276 276 277 277 277 278 280 280 281 281 282 282 281 280 279 279 279 280 280 282 281 282
Height
5908 5910 5911 5912 5912 5913 5914 5914 5914 5914 5913 5913 5912 5911 5911 5910 5909 5908 5907 5905 5904 5903 5902 5900 5899 5897 5896 5895 5894 5892 5891 5889 5888 5886 5885 5884 5883 5882 5881 5880 5879 5879 5878 5878
5908 5909 5910 5910 5911 5911 5912 5913 5913 5913 5912 5912 5912 5911 5910 5909 5908 5907 5906 5905 5903 5902 5901 5899 5898 5896 5895 5893 5892 5891 5889 5888 5886 5885 5884 5883 5882 5880 5880 5879 5878 5877 5877 5876
5905 5908 5907 5908 5909 5910 5910 5911 5911 5911 5911 5911 5911 5911 5910 5909 5908 5906 5905 5904 5903 5901 5900 5898 5896 5895 5893 5892 5890 5889 5887 5886 5884 5883 5882 5881 5880 5879 5878 5877 5876 5876 5875 5875
5903 5904 5905 5906 5907 5908 5909 5909 5909 5909 5909 5910 5910 5911 5909 5907 5906 5905 5904 5902 5901 5900 5898 5896 5895 5893 5891 5890 5888 5887 5885 5884 5882 5881 5880 5879 5878 5877 5876 5875 5875 5874 5873 5873
5901 5902 5903 5904 5905 5905 5906 5906 5906 5906 5907 5908 5908 5908 5909 5906 5905 5903 5902 5900 5899 5897 5896 5894 5893 5891 5890 5888 5886 5885 5884 5882 5881 5879 5878 5877 5876 5875 5874 5873 5872 5871 5871 5870
5898 5899 5900 5901 5902 5903 5903 5904 5904 5904 5905 5906 5906 5906 5906 5904 5902 5901 5900 5898 5897 5895 5894 5892 5890 5889 5887 5886 5884 5883 5881 5880 5878 5876 5875 5874 5873 5872 5871 5870 5869 5868 5868 5867
5895 5896 5897 5898 5899 5900 5901 5902 5904 5904 5904 5905 5903 5902 5903 5900 5899 5898 5897 5895 5894 5893 5891 5889 5888 5886 5885 5883 5882 5880 5879 5877 5875 5873 5872 5871 5869 5869 5868 5867 5866 5865 5864 5863
5893 5895 5895 5895 5896 5897 5898 5900 5902 5902 5903 5903 5899 5899 5899 5897 5895 5894 5893 5892 5891 5889 5888 5886 5885 5883 5882 5880 5879 5877 5876 5874 5872 5871 5869 5868 5866 5865 5864 5863 5862 5861 5860 5859
5889 5891 5891 5891 5892 5894 5894 5895 5897 5898 5897 5898 5897 5895 5894 5893 5892 5891 5890 5888 5887 5886 5884 5883 5881 5880 5878 5877 5875 5874 5872 5871 5869 5867 5866 5865 5863 5862 5860 5859 5858 5857 5856 5855
5884 5886 5887 5886 5888 5889 5890 5891 5892 5893 5893 5893 5894 5892 5891 5889 5888 5887 5886 5884 5883 5882 5880 5879 5877 5876 5874 5873 5872 5870 5868 5867 5865 5863 5862 5861 5859 5858 5857 5856 5854 5853 5852 5851
5878 5881 5882 5882 5883 5885 5885 5886 5886 5887 5888 5889 5890 5891 5886 5884 5883 5882 5881 5880 5878 5877 5876 5874 5873 5871 5870 5869 5867 5866 5864 5862 5861 5859 5857 5856 5855 5854 5853 5851 5850 5849 5847 5846
5872 5875 5876 5877 5878 5879 5879 5880 5881 5883 5882 5882 5883 5886 5880 5879 5878 5877 5876 5874 5873 5872 5871 5870 5868 5867 5865 5864 5862 5861 5859 5858 5856 5854 5853 5851 5850 5849 5848 5847 5846 5844 5843 5842
5866 5869 5871 5872 5874 5873 5873 5874 5875 5877 5877 5877 5878 5880 5875 5873 5872 5871 5870 5869 5868 5867 5866 5864 5863 5862 5860 5859 5857 5856 5854 5852 5851 5849 5848 5847 5845 5844 5843 5842 5840 5839 5837 5836
5860 5862 5865 5868 5868 5868 5868 5868 5869 5870 5872 5872 5871 5871 5869 5868 5867 5866 5865 5864 5863 5862 5860 5859 5858 5856 5854 5853 5851 5850 5848 5847 5845 5844 5843 5841 5840 5839 5837 5836 5835 5833 5832 5830
5853 5855 5857 5859 5860 5861 5861 5862 5862 5863 5864 5865 5865 5864 5863 5862 5861 5860 5859 5858 5857 5856 5855 5854 5852 5850 5849 5847 5845 5844 5842 5841 5839 5838 5837 5835 5834 5833 5832 5830 5829 5827 5826 5824
5845 5848 5849 5851 5852 5853 5854 5855 5855 5856 5857 5857 5857 5857 5857 5855 5854 5854 5853 5852 5851 5850 5849 5848 5846 5844 5843 5841 5840 5838 5836 5835 5833 5832 5831 5829 5828 5827 5825 5824 5823 5821 5820 5818
5838 5840 5842 5843 5845 5845 5846 5848 5849 5849 5849 5850 5850 5851 5849 5849 5848 5847 5846 5845 5845 5844 5843 5841 5840 5838 5837 5835 5834 5832 5830 5829 5827 5826 5824 5823 5822 5821 5819 5818 5816 5815 5813 5811
5830 5831 5833 5835 5836 5836 5841 5840 5841 5841 5842 5842 5842 5842 5842 5841 5841 5840 5839 5838 5838 5837 5836 5835 5833 5832 5830 5829 5827 5826 5824 5822 5821 5820 5818 5817 5815 5814 5813 5811 5810 5808 5806 5804
5821 5823 5825 5826 5827 5828 5831 5831 5832 5833 5833 5834 5834 5834 5834 5834 5833 5833 5832 5831 5830 5830 5829 5827 5826 5825 5824 5822 5821 5819 5818 5816 5814 5813 5812 5811 5809 5808 5806 5805 5803 5801 5799 5798
5813 5814 5817 5817 5819 5821 5823 5823 5824 5826 5825 5826 5826 5826 5826 5826 5826 5826 5825 5823 5823 5822 5821 5820 5819 5818 5816 5815 5813 5812 5811 5809 5808 5806 5805 5803 5802 5800 5799 5798 5796 5794 5792 5790
5804 5805 5807 5808 5810 5812 5814 5814 5816 5818 5818 5817 5817 5818 5818 5818 5818 5817 5816 5815 5815 5814 5813 5812 5811 5810 5808 5807 5806 5804 5803 5802 5800 5799 5797 5796 5794 5792 5791 5790 5788 5786 5785 5783
5795 5797 5799 5800 5802 5805 5805 5806 5807 5808 5808 5809 5809 5809 5809 5809 5809 5808 5808 5807 5806 5805 5805 5803 5802 5801 5800 5799 5797 5796 5795 5793 5792 5790 5789 5787 5785 5784 5782 5781 5780 5778 5776 5775
5786 5789 5790 5792 5795 5795 5796 5797 5797 5798 5799 5799 5800 5800 5800 5800 5800 5800 5799 5798 5797 5797 5796 5795 5794 5793 5791 5790 5789 5787 5786 5784 5783 5781 5780 5778 5777 5775 5774 5773 5771 5770 5768 5767
5776 5778 5780 5782 5784 5785 5786 5787 5788 5789 5790 5790 5791 5791 5791 5791 5791 5791 5790 5789 5788 5788 5787 5785 5784 5783 5783 5781 5780 5778 5777 5775 5774 5772 5771 5769 5768 5767 5765 5764 5763 5761 5760 5758
5767 5769 5770 5772 5775 5776 5777 5778 5779 5780 5780 5781 5781 5781 5781 5781 5781 5781 5780 5780 5779 5778 5777 5776 5775 5774 5773 5772 5771 5769 5768 5766 5765 5763 5762 5760 5759 5758 5756 5755 5754 5752 5751 5750
5757 5759 5761 5763 5765 5766 5768 5769 5769 5770 5771 5771 5772 5772 5771 5771 5771 5771 5770 5770 5769 5769 5768 5767 5766 5765 5764 5763 5761 5760 5759 5757 5756 5754 5753 5751 5750 5748 5747 5746 5745 5743 5742 5741